User: anonymous   Login
Location: Vancouver
(49.2500°N, 123.1330°W)
Time: 02:36:35
(UTC-07:00)
Language:

Oscar 11 - Orbit

View from above orbital plane
View from above orbital plane
View from above satellite
View from above satellite

Ground track
Ground track

The orbit data is extracted from the following two-line orbital elements,

1 14781U 84021B   16178.75150185  .00000089  00000-0  17389-4 0  9990
2 14781  97.7485 230.4627 0007069 286.4026  73.6411 14.82757747737671
Epoch (UTC): 26 June 2016 18:02:09
Eccentricity: 0.0007069
inclination: 97.7485°
perigee height: 615 km
apogee height: 625 km
right ascension of ascending node: 230.4627°
argument of perigee: 286.4026°
revolutions per day: 14.82757747
mean anomaly at epoch: 73.6411°
orbit number at epoch: 73767

The dashed part of the orbit path shows where the satellite is in the earth's shadow,  

DLR